FW4261 Weather Reports


time (UTC)temp
F
wind
direction
speed
knots
gust
knots
rain 1hr
in
rain 24hr
in
rain mn
in
humidity
%
barometer
mb
20260901142717 60 172 0.0 0.9 0.00 0.00 0.00 78 1015.8
20260901142238 60 141 0.0 0.9 0.00 0.00 0.00 78 1015.7
20260901141718 60 122 0.0 0.0 0.00 0.00 0.00 78 1015.7
20260901141218 60 150 0.0 0.9 0.00 0.00 0.00 79 1015.6
20260901140719 60 287 0.0 0.9 0.00 0.00 0.00 79 1015.6
20260901140218 60 186 0.0 0.9 0.00 0.00 0.00 79 1015.5
20260901135718 60 0.0 0.0 0.00 0.00 0.00 79 1015.4
20260901135218 60 159 0.0 0.9 0.00 0.00 0.00 79 1015.4
20260901134719 60 203 0.0 0.9 0.00 0.00 0.00 79 1015.3
20260901134238 60 101 0.0 0.0 0.00 0.00 0.00 79 1015.4
20260901133718 60 144 0.0 0.9 0.00 0.00 0.00 79 1015.4
20260901133218 60 0.0 0.0 0.00 0.00 0.00 79 1015.4
20260901132718 60 0.0 0.0 0.00 0.00 0.00 78 1015.3
20260901132218 60 143 0.0 0.9 0.00 0.00 0.00 77 1015.3
20260901131739 60 103 0.0 0.0 0.00 0.00 0.00 77 1015.3
20260901131236 60 0.0 0.0 0.00 0.00 0.00 76 1015.2
20260901130737 60 0.0 0.0 0.00 0.00 0.00 76 1015.2
20260901130219 60 0.0 0.0 0.00 0.00 0.00 76 1015.1
20260901125719 60 130 0.0 0.9 0.00 0.00 0.00 76 1015.1
20260901125219 60 0.0 0.0 0.00 0.00 0.00 76 1015.0
20260901124719 60 152 0.0 0.9 0.00 0.00 0.00 76 1015.0
20260901124301 60 103 0.0 0.0 0.00 0.00 0.00 76 1015.1
20260901123719 60 140 0.0 0.9 0.00 0.00 0.00 76 1015.1
20260901123257 60 142 0.0 0.9 0.00 0.00 0.00 76 1015.1
20260901122717 60 134 0.0 0.0 0.00 0.00 0.00 77 1015.1
20260901122217 60 0.0 0.0 0.00 0.00 0.00 77 1015.0
20260901121717 60 0.0 0.0 0.00 0.00 0.00 77 1015.0
20260901121237 60 98 0.0 0.0 0.00 0.00 0.00 77 1014.9
20260901120717 60 132 0.0 0.9 0.00 0.00 0.00 77 1015.0
20260901120220 60 131 0.0 0.0 0.00 0.00 0.00 76 1014.8
20260901115720 60 0.0 0.0 0.00 0.00 0.00 76 1014.9
20260901115241 60 120 0.0 0.0 0.00 0.00 0.00 76 1014.9
20260901114719 60 102 0.0 0.0 0.00 0.00 0.00 76 1014.9
20260901114217 60 0.0 0.0 0.00 0.00 0.00 76 1014.9
20260901113738 60 140 0.0 0.9 0.00 0.00 0.00 76 1014.9
20260901113217 60 0.0 0.0 0.00 0.00 0.00 76 1015.0
20260901112738 60 141 0.0 0.9 0.00 0.00 0.00 76 1015.0
20260901112306 60 0.0 0.0 0.00 0.00 0.00 76 1015.1
20260901111738 60 299 0.0 0.0 0.00 0.00 0.00 76 1015.1
20260901111238 60 96 0.0 0.0 0.00 0.00 0.00 75 1015.0
20260901110718 60 140 0.0 0.9 0.00 0.00 0.00 75 1014.9
20260901110218 60 127 0.0 0.9 0.00 0.00 0.00 75 1014.9
20260901105723 60 0.0 0.0 0.00 0.00 0.00 75 1014.9
20260901105218 60 149 0.0 0.9 0.00 0.00 0.00 75 1014.9
20260901104718 61 0.0 0.0 0.00 0.00 0.00 75 1014.9
20260901104240 60 0.0 0.0 0.00 0.00 0.00 75 1014.9
20260901103719 60 0.0 0.0 0.00 0.00 0.00 75 1014.8
20260901103218 60 0.0 0.0 0.00 0.00 0.00 75 1014.7
20260901102518 60 168 0.0 0.9 0.00 0.00 0.00 75 1014.7
20260901102019 60 134 0.0 0.9 0.00 0.00 0.00 76 1014.7
20260901101516 60 0.0 0.0 0.00 0.00 0.00 78 1014.7
20260901101016 60 0.0 0.0 0.00 0.00 0.00 80 1014.8
20260901100519 60 153 0.0 0.9 0.00 0.00 0.00 82 1014.8
20260901100044 60 154 0.0 0.9 0.00 0.00 0.00 82 1014.8
20260901095519 60 138 0.0 0.9 0.00 0.00 0.00 83 1014.8
20260901095019 61 0.0 0.0 0.00 0.00 0.00 84 1014.8
20260901094519 61 214 0.0 0.9 0.00 0.00 0.00 84 1014.7
20260901094019 61 241 0.0 0.9 0.00 0.00 0.00 84 1014.7
20260901093516 61 164 0.0 0.9 0.00 0.00 0.00 84 1014.7
20260901093016 61 248 0.0 0.9 0.00 0.00 0.00 83 1014.6
20260901092538 61 162 0.0 0.9 0.00 0.00 0.00 84 1014.6
20260901092017 61 345 0.0 0.0 0.00 0.00 0.00 85 1014.6
20260901091517 61 132 0.0 0.9 0.00 0.00 0.00 85 1014.7
20260901091017 61 229 0.0 0.9 0.00 0.00 0.00 85 1014.7
20260901090540 61 204 0.0 0.9 0.00 0.00 0.00 85 1014.7
20260901090025 61 154 0.0 0.9 0.00 0.00 0.00 85 1014.6
20260901085520 61 325 0.0 0.0 0.00 0.00 0.00 85 1014.6
20260901085017 61 162 0.0 0.9 0.00 0.00 0.00 85 1014.6
20260901084517 61 186 0.0 0.0 0.00 0.00 0.00 85 1014.5
20260901084017 61 150 0.0 0.9 0.00 0.00 0.00 85 1014.6
20260901083519 61 7 0.0 0.0 0.00 0.00 0.00 85 1014.7
20260901083019 61 152 0.0 0.9 0.00 0.00 0.00 85 1014.7
20260901082518 61 181 0.0 0.9 0.00 0.00 0.00 85 1014.7
20260901082038 61 176 0.0 0.9 0.00 0.00 0.00 85 1014.7
20260901081518 61 0.0 0.0 0.00 0.00 0.00 85 1014.6
20260901081038 61 0.0 0.0 0.00 0.00 0.00 85 1014.6
20260901080538 61 0.0 0.0 0.00 0.00 0.00 85 1014.6
20260901080023 61 151 0.0 0.9 0.00 0.00 0.00 85 1014.7
20260901075518 61 270 0.0 0.9 0.00 0.00 0.00 85 1014.6
20260901075038 61 197 0.0 0.9 0.00 0.00 0.00 85 1014.7
20260901074520 61 0.0 0.0 0.00 0.00 0.00 85 1014.7
20260901074019 61 309 0.0 0.9 0.00 0.00 0.00 85 1014.8
20260901073600 61 193 0.0 0.9 0.00 0.00 0.00 85 1014.8
20260901073018 61 161 0.0 0.9 0.00 0.00 0.00 85 1014.8
20260901072519 61 215 0.0 0.9 0.00 0.00 0.00 85 1014.8
20260901072021 61 140 0.0 0.9 0.00 0.00 0.00 85 1014.7
20260901071518 61 0.0 0.0 0.00 0.00 0.00 85 1014.7
20260901071017 61 0.0 0.0 0.00 0.00 0.00 84 1014.7
20260901070520 61 134 0.0 0.0 0.00 0.00 0.00 84 1014.8
20260901070019 62 0.0 0.0 0.00 0.00 0.00 84 1014.7
20260901065519 62 0.0 0.0 0.00 0.00 0.00 84 1014.7
20260901065020 62 0.0 0.0 0.00 0.00 0.00 84 1014.7
20260901064517 61 105 0.0 0.0 0.00 0.00 0.00 84 1014.7
20260901064017 61 139 0.0 0.9 0.00 0.00 0.00 84 1014.8
20260901063517 61 0.0 0.0 0.00 0.00 0.00 84 1014.8
20260901063017 61 0.0 0.0 0.00 0.00 0.00 84 1014.7
20260901062517 61 0.0 0.0 0.00 0.00 0.00 84 1014.7
20260901062017 61 143 0.0 0.0 0.00 0.00 0.00 84 1014.6
20260901061541 61 180 0.0 0.0 0.00 0.00 0.00 84 1014.7
20260901061020 61 0.0 0.0 0.00 0.00 0.00 84 1014.6
20260901060517 61 0.0 0.0 0.00 0.00 0.00 84 1014.6
20260901060018 61 170 0.9 0.9 0.00 0.00 0.00 84 1014.6
20260901055518 61 140 0.0 0.9 0.00 0.00 0.00 84 1014.5
20260901055018 61 192 0.0 0.0 0.00 0.00 0.00 84 1014.6
20260901054538 61 134 0.0 0.9 0.00 0.00 0.00 85 1014.6
20260901054018 61 0.0 0.0 0.00 0.00 0.00 85 1014.6
20260901053523 61 57 0.0 0.9 0.00 0.00 0.00 85 1014.7
20260901053018 61 242 0.0 0.9 0.00 0.00 0.00 85 1014.7
20260901052518 61 154 0.0 1.7 0.00 0.00 0.00 85 1014.7
20260901052020 60 193 0.0 0.9 0.00 0.00 0.00 86 1014.7
20260901051518 60 165 0.0 0.9 0.00 0.00 0.00 86 1014.7
20260901051019 60 1 0.0 0.9 0.00 0.00 0.00 86 1014.6
20260901050519 60 114 0.0 0.9 0.00 0.00 0.00 86 1014.6
20260901050019 60 149 0.0 0.9 0.00 0.00 0.00 86 1014.4
20260901045559 60 172 0.0 0.9 0.00 0.00 0.00 85 1014.4
20260901045019 60 152 0.0 0.9 0.00 0.00 0.00 85 1014.2
20260901044519 61 204 0.0 0.9 0.00 0.00 0.00 85 1014.2
20260901044021 61 157 0.0 0.9 0.00 0.00 0.00 85 1014.2
20260901043516 61 209 0.0 0.9 0.00 0.00 0.00 85 1014.1
20260901043038 61 138 0.0 0.9 0.00 0.00 0.00 85 1014.2
20260901042516 61 156 0.0 0.9 0.00 0.00 0.00 85 1014.0
20260901042037 61 0.0 0.0 0.00 0.00 0.00 85 1013.9
20260901041520 60 164 0.0 1.7 0.00 0.00 0.00 85 1013.8
20260901041019 60 0.0 0.0 0.00 0.00 0.00 85 1013.8
20260901040540 60 271 0.0 0.9 0.00 0.00 0.00 85 1013.9
20260901040041 60 229 0.0 0.9 0.00 0.00 0.00 85 1013.9
20260901035517 60 140 0.9 1.7 0.00 0.00 0.00 85 1013.8
20260901034917 60 191 0.0 0.9 0.00 0.00 0.00 85 1013.6
20260901034417 60 169 0.0 0.9 0.00 0.00 0.00 85 1013.7
20260901033917 61 220 0.0 0.9 0.00 0.00 0.00 85 1013.5
20260901033438 61 129 0.0 0.9 0.00 0.00 0.00 85 1013.4
20260901032917 61 305 0.0 0.0 0.00 0.00 0.00 85 1013.3
20260901032417 61 0.0 0.0 0.00 0.00 0.00 84 1013.4
20260901031918 61 202 0.0 0.9 0.00 0.00 0.00 84 1013.3
20260901031418 61 166 0.0 0.9 0.00 0.00 0.00 84 1013.3
20260901030917 61 111 0.0 0.0 0.00 0.00 0.00 84 1013.3
20260901030418 62 236 0.0 1.7 0.00 0.00 0.00 83 1013.3
20260901025918 62 169 0.0 0.9 0.00 0.00 0.00 83 1013.1
20260901025418 62 126 0.0 0.9 0.00 0.00 0.00 82 1013.2
20260901024938 63 0.0 0.0 0.00 0.00 0.00 82 1013.1
20260901024423 63 0.0 0.0 0.00 0.00 0.00 81 1013.2
20260901023918 63 147 0.0 0.9 0.00 0.00 0.00 80 1013.2
20260901023418 64 0.0 0.0 0.00 0.00 0.00 79 1013.2
20260901022918 64 128 0.0 0.9 0.00 0.00 0.00 78 1013.2
20260901022436 65 169 0.0 0.9 0.00 0.00 0.00 77 1013.1
20260901021919 65 137 0.0 1.7 0.00 0.00 0.00 76 1013.2
20260901021418 66 171 0.0 0.9 0.00 0.00 0.00 75 1013.2
20260901020918 66 0.0 0.0 0.00 0.00 0.00 75 1013.3
20260901020500 66 0.0 0.0 0.00 0.00 0.00 75 1013.2
20260901015941 67 265 0.0 0.9 0.00 0.00 0.00 75 1013.2
20260901015419 67 0.0 0.0 0.00 0.00 0.00 75 1013.2
20260901014939 67 0.0 0.0 0.00 0.00 0.00 75 1013.2
20260901014416 67 272 0.0 0.9 0.00 0.00 0.00 74 1013.1
20260901013916 67 304 0.0 0.9 0.00 0.00 0.00 75 1013.2
20260901013416 67 291 0.0 2.6 0.00 0.00 0.00 73 1013.2
20260901012937 67 291 0.9 2.6 0.00 0.00 0.00 75 1013.2
20260901012416 66 264 0.0 0.9 0.00 0.00 0.00 76 1013.2
20260901011919 66 218 0.0 1.7 0.00 0.00 0.00 76 1013.3
20260901011420 66 237 0.0 0.9 0.00 0.00 0.00 76 1013.2
20260901010920 66 229 0.9 1.7 0.00 0.00 0.00 76 1013.3
20260901010420 65 199 0.9 3.5 0.00 0.00 0.00 77 1013.4
20260901005917 66 291 0.9 2.6 0.00 0.00 0.00 76 1013.4
20260901005417 67 295 0.9 2.6 0.00 0.00 0.00 75 1013.5
20260901004917 68 281 0.9 2.6 0.00 0.00 0.00 74 1013.4
20260901004438 69 234 0.9 2.6 0.00 0.00 0.00 72 1013.6
20260901003917 70 273 0.9 1.7 0.00 0.00 0.00 69 1013.4
20260901003417 70 270 0.0 0.9 0.00 0.00 0.00 69 1013.4
20260901002918 69 226 0.0 0.9 0.00 0.00 0.00 69 1013.5
20260901002438 69 271 0.9 1.7 0.00 0.00 0.00 69 1013.5
20260901001943 69 258 0.9 1.7 0.00 0.00 0.00 68 1013.4
20260901001418 68 244 0.9 1.7 0.00 0.00 0.00 70 1013.3
20260901000918 68 268 0.9 2.6 0.00 0.00 0.00 70 1013.4
20260901000443 67 187 0.9 2.6 0.00 0.00 0.00 71 1013.3
20260831235918 67 251 0.9 2.6 0.00 0.00 0.00 72 1013.4
20260831235418 67 254 1.7 3.5 0.00 0.00 0.00 72 1013.4
20260831234918 67 269 0.9 4.3 0.00 0.00 0.00 73 1013.4
20260831234423 67 295 0.9 2.6 0.00 0.00 0.00 74 1013.5
20260831233919 67 232 0.9 1.7 0.00 0.00 0.00 73 1013.6
20260831233441 0 216 0.9 2.6 0.00 0.00 0.00
20260831232918 68 276 0.9 1.7 0.00 0.00 0.00 72 1013.6
20260831232420 68 267 0.9 0.9 0.00 0.00 0.00 73 1013.6
20260831231939 69 255 0.9 2.6 0.00 0.00 0.00 69 1013.6
20260831231421 69 257 0.0 1.7 0.00 0.00 0.00 70 1013.7
20260831230939 69 251 0.9 2.6 0.00 0.00 0.00 69 1013.7
20260831230417 69 278 0.9 2.6 0.00 0.00 0.00 71 1013.8
20260831225916 69 215 0.9 0.9 0.00 0.00 0.00 70 1013.8
20260831225416 68 255 0.9 2.6 0.00 0.00 0.00 72 1013.9
20260831224916 68 254 0.9 3.5 0.00 0.00 0.00 74 1013.9
20260831224416 0 253 0.9 3.5 0.00 0.00 0.00
20260831223920 68 295 0.0 1.7 0.00 0.00 0.00 73 1013.9
20260831223420 68 245 0.9 2.6 0.00 0.00 0.00 72 1013.9
20260831222917 67 317 0.0 1.7 0.00 0.00 0.00 75 1014.0
20260831222422 67 249 0.9 2.6 0.00 0.00 0.00 72 1014.0
20260831221917 67 278 0.9 1.7 0.00 0.00 0.00 74 1014.1
20260831221417 66 274 0.0 1.7 0.00 0.00 0.00 75 1014.2
20260831220917 67 265 0.0 1.7 0.00 0.00 0.00 74 1014.3
20260831220417 66 262 0.9 2.6 0.00 0.00 0.00 73 1014.4
20260831215917 65 272 0.9 2.6 0.00 0.00 0.00 76 1014.4
20260831215422 0 277 1.7 4.3 0.00 0.00 0.00
20260831214918 65 268 0.9 3.5 0.00 0.00 0.00 77 1014.5
20260831214417 65 279 1.7 2.6 0.00 0.00 0.00 74 1014.6
20260831213918 65 207 0.0 1.7 0.00 0.00 0.00 76 1014.5
20260831213418 65 265 1.7 2.6 0.00 0.00 0.00 77 1014.7
20260831212918 65 232 0.9 1.7 0.00 0.00 0.00 75 1014.7
20260831212423 65 275 0.0 1.7 0.00 0.00 0.00 75 1014.7
20260831211939 66 262 0.9 2.6 0.00 0.00 0.00 75 1014.7
20260831211418 67 215 0.0 0.9 0.00 0.00 0.00 73 1014.8
20260831210918 68 289 0.9 2.6 0.00 0.00 0.00 71 1014.8
20260831210423 68 278 0.9 1.7 0.00 0.00 0.00 71 1014.8
20260831205918 68 240 0.9 1.7 0.00 0.00 0.00 69 1014.8
20260831205418 67 255 0.9 2.6 0.00 0.00 0.00 71 1014.8
20260831204919 67 265 0.9 1.7 0.00 0.00 0.00 71 1014.9
20260831204419 66 295 0.0 0.9 0.00 0.00 0.00 72 1014.9
20260831203921 66 266 0.0 0.9 0.00 0.00 0.00 73 1014.9
20260831203420 66 293 0.0 1.7 0.00 0.00 0.00 72 1015.0
20260831202919 65 253 0.0 1.7 0.00 0.00 0.00 74 1014.9
20260831202419 65 251 0.9 2.6 0.00 0.00 0.00 72 1015.0
20260831201919 64 227 0.0 1.7 0.00 0.00 0.00 77 1015.0
20260831201416 64 273 0.9 2.6 0.00 0.00 0.00 75 1015.0
20260831200937 65 275 0.9 2.6 0.00 0.00 0.00 76 1015.0
20260831200418 65 258 0.9 2.6 0.00 0.00 0.00 75 1014.9
20260831195917 65 267 0.9 2.6 0.00 0.00 0.00 73 1014.9
20260831195436 65 267 0.0 0.9 0.00 0.00 0.00 77 1014.9
20260831194921 66 272 0.9 2.6 0.00 0.00 0.00 74 1015.0
20260831194419 67 187 0.0 1.7 0.00 0.00 0.00 72 1015.0
20260831193920 66 185 0.0 0.9 0.00 0.00 0.00 72 1015.1
20260831193417 66 262 0.9 2.6 0.00 0.00 0.00 72 1015.1
20260831192917 65 222 0.0 0.9 0.00 0.00 0.00 74 1015.2
20260831192417 65 231 0.9 1.7 0.00 0.00 0.00 75 1015.3
20260831191917 64 230 0.9 1.7 0.00 0.00 0.00 74 1015.3
20260831191417 63 271 0.0 1.7 0.00 0.00 0.00 77 1015.3
20260831190917 63 252 0.9 1.7 0.00 0.00 0.00 76 1015.3
20260831190417 64 264 0.9 2.6 0.00 0.00 0.00 76 1015.3
20260831185917 66 265 1.7 3.5 0.00 0.00 0.00 73 1015.3
20260831185423 66 230 0.0 1.7 0.00 0.00 0.00 72 1015.3
20260831184917 65 228 0.0 0.9 0.00 0.00 0.00 71 1015.2
20260831184417 64 212 0.9 1.7 0.00 0.00 0.00 72 1015.2
20260831183918 64 256 0.0 0.9 0.00 0.00 0.00 72 1015.2
20260831183418 63 311 0.0 0.9 0.00 0.00 0.00 77 1015.3
20260831182920 62 239 0.9 0.9 0.00 0.00 0.00 77 1015.3
20260831182418 62 240 0.9 1.7 0.00 0.00 0.00 75 1015.3
20260831181938 62 207 0.0 1.7 0.00 0.00 0.00 77 1015.4
20260831181419 62 237 0.9 0.9 0.00 0.00 0.00 77 1015.4
20260831180924 62 218 0.0 0.0 0.00 0.00 0.00 76 1015.4
20260831180424 62 307 0.9 0.9 0.00 0.00 0.00 76 1015.4
20260831175924 62 181 0.0 0.0 0.00 0.00 0.00 76 1015.4
20260831175426 61 291 0.0 0.9 0.00 0.00 0.00 77 1015.4
20260831174924 61 220 0.0 0.9 0.00 0.00 0.00 78 1015.3
20260831174425 61 238 0.0 0.9 0.00 0.00 0.00 78 1015.4
20260831173924 62 285 0.0 0.9 0.00 0.00 0.00 77 1015.3
20260831173426 62 298 0.0 0.9 0.00 0.00 0.00 78 1015.3
20260831172924 62 198 0.9 0.9 0.00 0.00 0.00 76 1015.3
20260831172425 62 287 0.0 0.9 0.00 0.00 0.00 76 1015.2
20260831171945 62 0.0 0.0 0.00 0.00 0.00 75 1015.2
20260831171447 62 326 0.0 0.9 0.00 0.00 0.00 74 1015.2
20260831170926 62 293 0.0 0.9 0.00 0.00 0.00 75 1015.1
20260831170425 61 111 0.0 0.0 0.00 0.00 0.00 76 1015.1
20260831165925 62 246 0.9 0.9 0.00 0.00 0.00 76 1015.0
20260831165426 62 342 0.0 0.0 0.00 0.00 0.00 76 1015.0
20260831164927 61 10 0.0 0.0 0.00 0.00 0.00 77 1015.0
20260831164427 61 0.0 0.0 0.00 0.00 0.00 78 1015.0
20260831163926 61 0.0 0.0 0.00 0.00 0.00 79 1015.0
20260831163427 0 0.0 0.0 0.00 0.00 0.00
20260831162806 60 222 0.0 0.9 0.00 0.00 0.00 81 1014.9
20260831162226 60 0.0 0.0 0.00 0.00 0.00 81 1014.9
20260831161726 60 235 0.0 0.0 0.00 0.00 0.00 81 1014.9
20260831161218 59 171 0.9 0.9 0.00 0.00 0.00 82 1014.9
20260831160718 59 153 0.0 0.9 0.00 0.00 0.00 84 1014.9
20260831160238 59 201 0.9 0.9 0.00 0.00 0.00 84 1014.9
20260831155718 59 155 0.9 0.9 0.00 0.00 0.00 85 1014.8
20260831155218 59 279 0.0 0.9 0.00 0.00 0.00 85 1014.9
20260831154718 58 311 0.0 0.0 0.00 0.00 0.00 87 1014.8
20260831154219 58 146 0.9 1.7 0.00 0.00 0.00 87 1014.7
20260831153738 58 147 0.9 1.7 0.00 0.00 0.00 87 1014.8
20260831153218 58 167 0.9 1.7 0.00 0.00 0.00 88 1014.8
20260831152718 57 157 0.9 1.7 0.00 0.00 0.00 88 1014.7
20260831152219 58 351 0.0 0.9 0.00 0.00 0.00 89 1014.6
20260831151723 57 162 0.0 0.9 0.00 0.00 0.00 89 1014.6
20260831151218 57 145 0.9 0.9 0.00 0.00 0.00 89 1014.6
20260831150718 57 142 0.9 1.7 0.00 0.00 0.00 90 1014.6
20260831150219 57 132 0.0 0.9 0.00 0.00 0.00 90 1014.6
20260831145719 57 138 0.9 0.9 0.00 0.00 0.00 91 1014.5
20260831145239 57 140 0.9 0.9 0.00 0.00 0.00 91 1014.4
20260831144719 57 113 0.0 0.9 0.00 0.00 0.00 92 1014.3
20260831144219 57 145 0.9 0.9 0.00 0.00 0.00 92 1014.3
20260831143716 56 138 0.9 0.9 0.00 0.00 0.00 92 1014.2
20260831143216 57 130 0.9 0.9 0.00 0.00 0.00 92 1014.2